Location: Key Biscayne
(25.6930°N, 80.1630°W)
Time: 18:10:48
(UTC-05:00)

Vanguard 1 - Visible Passes

Search period start: 17 November 2017 00:00
Search period end: 27 November 2017 00:00
Orbit: 650 x 3834 km, 34.2° (Epoch: 16 November)

Date Brightness Start Highest point End Pass type
(mag) Time Alt. Az. Time Alt. Az. Time Alt. Az.
17 Nov 13.7 03:12:03 12° SSW 03:12:03 12° SSW 03:15:12 10° SSW visible
17 Nov 10.2 17:57:30 10° WNW 18:01:42 35° NNW 18:05:59 10° ENE visible
17 Nov 12.0 20:18:16 10° NW 20:18:53 14° NW 20:18:53 14° NW visible
18 Nov 10.4 18:18:59 10° WNW 18:22:57 30° N 18:26:03 15° NE visible
19 Nov 10.4 18:40:20 10° WNW 18:44:14 29° N 18:45:56 23° NE visible
20 Nov 10.2 19:01:33 10° NW 19:05:30 31° N 19:05:51 30° NNE visible
21 Nov 10.3 19:22:36 10° NW 19:25:47 33° NNW 19:25:47 33° NNW visible
22 Nov 10.9 19:43:33 10° WNW 19:45:43 27° NW 19:45:43 27° NW visible
23 Nov 11.5 20:04:29 10° WNW 20:05:42 19° WNW 20:05:42 19° WNW visible
24 Nov 10.2 18:05:22 10° WNW 18:09:32 30° N 18:12:59 13° ENE visible
24 Nov 12.1 20:25:25 10° WNW 20:25:43 12° WNW 20:25:43 12° WNW visible
25 Nov 9.9 18:26:31 10° NW 18:30:45 36° NNE 18:33:02 22° ENE visible
26 Nov 9.5 18:47:33 10° WNW 18:51:55 48° NNE 18:53:07 38° ENE visible
